owner,sensor,date,latitude,longitude,vertical_datum,direction_of_sea_water_velocity,sea_water_speed,upward_sea_water_velocity,qcFlag 
TABS,ioos:station:wmo:42051:1,2015-10-01T00:00:00Z,29.6350,-93.6417,2.0,264.1988563,32.25516548,-99999.0,'11111222,11111222,99999999' 
TABS,ioos:station:wmo:42051:1,2015-10-01T00:30:00Z,29.6350,-93.6417,2.0,269.7180303,28.49034398,-99999.0,'11111222,11111222,99999999' 
TABS,ioos:station:wmo:42051:1,2015-10-01T01:00:00Z,29.6350,-93.6417,2.0,268.404156,22.26863265,-99999.0,'11111222,11111222,99999999' 
TABS,ioos:station:wmo:42051:1,2015-10-01T01:30:00Z,29.6350,-93.6417,2.0,266.2852871,22.53734013,-99999.0,'11111222,11111222,99999999' 
TABS,ioos:station:wmo:42051:1,2015-10-01T02:00:00Z,29.6350,-93.6417,2.0,262.7921353,23.27390169,-99999.0,'11111222,11111222,99999999' 
TABS,ioos:station:wmo:42051:1,2015-10-01T02:30:00Z,29.6350,-93.6417,2.0,266.9316987,21.86133116,-99999.0,'11111222,11111222,99999999' 
TABS,ioos:station:wmo:42051:1,2015-10-01T03:00:00Z,29.6350,-93.6417,2.0,265.5482373,19.19790874,-99999.0,'11111222,11111222,99999999' 
TABS,ioos:station:wmo:42051:1,2015-10-01T03:30:00Z,29.6350,-93.6417,2.0,269.8941917,16.31002759,-99999.0,'11111222,11111222,99999999' 
TABS,ioos:station:wmo:42051:1,2015-10-01T04:00:00Z,29.6350,-93.6417,2.0,264.9096437,20.8522277,-99999.0,'11111222,11111222,99999999' 
TABS,ioos:station:wmo:42051:1,2015-10-01T04:30:00Z,29.6350,-93.6417,2.0,269.016662,20.40300223,-99999.0,'11111222,11111222,99999999' 
TABS,ioos:station:wmo:42051:1,2015-10-01T05:00:00Z,29.6350,-93.6417,2.0,272.257621,20.56595731,-99999.0,'11111222,11111222,99999999' 
TABS,ioos:station:wmo:42051:1,2015-10-01T05:30:00Z,29.6350,-93.6417,2.0,278.6639679,18.98664004,-99999.0,'11111222,11111222,99999999' 
TABS,ioos:station:wmo:42051:1,2015-10-01T06:00:00Z,29.6350,-93.6417,2.0,277.549825,14.23337627,-99999.0,'11111222,11111222,99999999' 
TABS,ioos:station:wmo:42051:1,2015-10-01T06:30:00Z,29.6350,-93.6417,2.0,279.4262811,15.5094036,-99999.0,'11111222,11111222,99999999' 
TABS,ioos:station:wmo:42051:1,2015-10-01T07:00:00Z,29.6350,-93.6417,2.0,282.8405423,15.56932882,-99999.0,'11111222,11111222,99999999' 
TABS,ioos:station:wmo:42051:1,2015-10-01T07:30:00Z,29.6350,-93.6417,2.0,274.9068928,17.65469343,-99999.0,'11111222,11111222,99999999' 
TABS,ioos:station:wmo:42051:1,2015-10-01T08:00:00Z,29.6350,-93.6417,2.0,269.8746841,18.3500436,-99999.0,'11111222,11111222,99999999' 
TABS,ioos:station:wmo:42051:1,2015-10-01T08:30:00Z,29.6350,-93.6417,2.0,263.4276718,15.29047416,-99999.0,'11111222,11111222,99999999' 
TABS,ioos:station:wmo:42051:1,2015-10-01T09:00:00Z,29.6350,-93.6417,2.0,258.0827015,14.62520085,-99999.0,'11111222,11111222,99999999' 
TABS,ioos:station:wmo:42051:1,2015-10-01T09:30:00Z,29.6350,-93.6417,2.0,258.1603709,19.10644917,-99999.0,'11111222,11111222,99999999' 
TABS,ioos:station:wmo:42051:1,2015-10-01T10:00:00Z,29.6350,-93.6417,2.0,262.8286939,23.23171324,-99999.0,'11111222,11111222,99999999' 
TABS,ioos:station:wmo:42051:1,2015-10-01T10:30:00Z,29.6350,-93.6417,2.0,261.8232319,19.26583764,-99999.0,'11111222,11111222,99999999' 
TABS,ioos:station:wmo:42051:1,2015-10-01T11:00:00Z,29.6350,-93.6417,2.0,259.2318142,19.48304904,-99999.0,'11111222,11111222,99999999' 
TABS,ioos:station:wmo:42051:1,2015-10-01T11:30:00Z,29.6350,-93.6417,2.0,251.407567,14.99241475,-99999.0,'11111222,11111222,99999999' 
TABS,ioos:station:wmo:42051:1,2015-10-01T12:00:00Z,29.6350,-93.6417,2.0,247.8877622,13.7082311,-99999.0,'11111222,11111222,99999999' 
TABS,ioos:station:wmo:42051:1,2015-10-01T12:30:00Z,29.6350,-93.6417,2.0,242.8832688,17.66128251,-99999.0,'11111222,11111222,99999999' 
TABS,ioos:station:wmo:42051:1,2015-10-01T13:00:00Z,29.6350,-93.6417,2.0,245.5298377,18.34802442,-99999.0,'11111222,11111222,99999999' 
TABS,ioos:station:wmo:42051:1,2015-10-01T13:30:00Z,29.6350,-93.6417,2.0,242.0155618,17.15590277,-99999.0,'11111222,11111222,99999999' 
TABS,ioos:station:wmo:42051:1,2015-10-01T14:00:00Z,29.6350,-93.6417,2.0,227.094932,24.36905004,-99999.0,'11111222,11111222,99999999' 
TABS,ioos:station:wmo:42051:1,2015-10-01T14:30:00Z,29.6350,-93.6417,2.0,243.5697455,24.64600982,-99999.0,'11111222,11111222,99999999' 
TABS,ioos:station:wmo:42051:1,2015-10-01T15:00:00Z,29.6350,-93.6417,2.0,248.4533776,21.266041,-99999.0,'11111222,11111222,99999999' 
TABS,ioos:station:wmo:42051:1,2015-10-01T15:30:00Z,29.6350,-93.6417,2.0,252.3442872,19.05764938,-99999.0,'11111222,11111222,99999999' 
TABS,ioos:station:wmo:42051:1,2015-10-01T16:00:00Z,29.6350,-93.6417,2.0,249.5996694,17.61475802,-99999.0,'11111222,11111222,99999999' 
TABS,ioos:station:wmo:42051:1,2015-10-01T16:30:00Z,29.6350,-93.6417,2.0,250.4284786,18.18034653,-99999.0,'11111222,11111222,99999999' 
TABS,ioos:station:wmo:42051:1,2015-10-01T17:00:00Z,29.6350,-93.6417,2.0,247.0813977,16.10098755,-99999.0,'11111222,11111222,99999999' 
TABS,ioos:station:wmo:42051:1,2015-10-01T17:30:00Z,29.6350,-93.6417,2.0,241.7133691,16.08011194,-99999.0,'11111222,11111222,99999999' 
TABS,ioos:station:wmo:42051:1,2015-10-01T18:00:00Z,29.6350,-93.6417,2.0,242.993512,16.84703535,-99999.0,'11111222,11111222,99999999' 
TABS,ioos:station:wmo:42051:1,2015-10-01T18:30:00Z,29.6350,-93.6417,2.0,242.1528763,23.59194778,-99999.0,'11111222,11111222,99999999' 
TABS,ioos:station:wmo:42051:1,2015-10-01T19:00:00Z,29.6350,-93.6417,2.0,246.5973822,22.5336393,-99999.0,'11111222,11111222,99999999' 
TABS,ioos:station:wmo:42051:1,2015-10-01T19:30:00Z,29.6350,-93.6417,2.0,246.0450811,21.99442884,-99999.0,'11111222,11111222,99999999' 
TABS,ioos:station:wmo:42051:1,2015-10-01T20:00:00Z,29.6350,-93.6417,2.0,257.2189066,20.47734846,-99999.0,'11111222,11111222,99999999' 
TABS,ioos:station:wmo:42051:1,2015-10-01T20:30:00Z,29.6350,-93.6417,2.0,249.3046907,23.17538565,-99999.0,'11111222,11111222,99999999' 
TABS,ioos:station:wmo:42051:1,2015-10-01T21:00:00Z,29.6350,-93.6417,2.0,253.6445977,22.47963078,-99999.0,'11111222,11111222,99999999' 
TABS,ioos:station:wmo:42051:1,2015-10-01T21:30:00Z,29.6350,-93.6417,2.0,244.8965101,27.69600874,-99999.0,'11111222,11111222,99999999' 
TABS,ioos:station:wmo:42051:1,2015-10-01T22:00:00Z,29.6350,-93.6417,2.0,248.9022043,24.03079067,-99999.0,'11111222,11111222,99999999' 
TABS,ioos:station:wmo:42051:1,2015-10-01T22:30:00Z,29.6350,-93.6417,2.0,252.8694918,21.52488095,-99999.0,'11111222,11111222,99999999' 
TABS,ioos:station:wmo:42051:1,2015-10-01T23:00:00Z,29.6350,-93.6417,2.0,262.4491334,19.71090307,-99999.0,'11111222,11111222,99999999' 
TABS,ioos:station:wmo:42051:1,2015-10-01T23:30:00Z,29.6350,-93.6417,2.0,257.9268758,27.25275215,-99999.0,'11111222,11111222,99999999' 
TABS,ioos:station:wmo:42051:1,2015-10-02T00:00:00Z,29.6350,-93.6417,2.0,251.1273105,22.78487437,-99999.0,'11111222,11111222,99999999' 
TABS,ioos:station:wmo:42051:1,2015-10-02T00:30:00Z,29.6350,-93.6417,2.0,245.917763,20.9537443,-99999.0,'11111222,11111222,99999999' 
TABS,ioos:station:wmo:42051:1,2015-10-02T01:00:00Z,29.6350,-93.6417,2.0,252.1755194,18.68696069,-99999.0,'11111222,11111222,99999999' 
TABS,ioos:station:wmo:42051:1,2015-10-02T01:30:00Z,29.6350,-93.6417,2.0,244.8457447,17.43320108,-99999.0,'11111222,11111222,99999999' 
TABS,ioos:station:wmo:42051:1,2015-10-02T02:00:00Z,29.6350,-93.6417,2.0,239.4511908,18.21877328,-99999.0,'11111222,11111222,99999999' 
TABS,ioos:station:wmo:42051:1,2015-10-02T02:30:00Z,29.6350,-93.6417,2.0,244.5623676,17.95015877,-99999.0,'11111222,11111222,99999999' 
TABS,ioos:station:wmo:42051:1,2015-10-02T03:00:00Z,29.6350,-93.6417,2.0,239.6595576,15.28314431,-99999.0,'11111222,11111222,99999999' 
TABS,ioos:station:wmo:42051:1,2015-10-02T03:30:00Z,29.6350,-93.6417,2.0,235.4955395,20.10713804,-99999.0,'11111222,11111222,99999999' 
TABS,ioos:station:wmo:42051:1,2015-10-02T04:00:00Z,29.6350,-93.6417,2.0,246.9820711,14.96112964,-99999.0,'11111222,11111222,99999999' 
TABS,ioos:station:wmo:42051:1,2015-10-02T04:30:00Z,29.6350,-93.6417,2.0,232.1183022,15.74845389,-99999.0,'11111222,11111222,99999999' 
TABS,ioos:station:wmo:42051:1,2015-10-02T05:00:00Z,29.6350,-93.6417,2.0,235.3959683,14.26315533,-99999.0,'11111222,11111222,99999999' 
TABS,ioos:station:wmo:42051:1,2015-10-02T05:30:00Z,29.6350,-93.6417,2.0,242.5920677,13.99035382,-99999.0,'11111222,11111222,99999999' 
TABS,ioos:station:wmo:42051:1,2015-10-02T06:00:00Z,29.6350,-93.6417,2.0,244.0214647,13.97168565,-99999.0,'11111222,11111222,99999999' 
TABS,ioos:station:wmo:42051:1,2015-10-02T06:30:00Z,29.6350,-93.6417,2.0,266.7514512,10.2364447,-99999.0,'11111222,11111222,99999999' 
TABS,ioos:station:wmo:42051:1,2015-10-02T07:00:00Z,29.6350,-93.6417,2.0,257.3315827,16.96292722,-99999.0,'11111222,11111222,99999999' 
TABS,ioos:station:wmo:42051:1,2015-10-02T07:30:00Z,29.6350,-93.6417,2.0,263.7553328,15.17,-99999.0,'11111222,11111222,99999999' 
TABS,ioos:station:wmo:42051:1,2015-10-02T08:00:00Z,29.6350,-93.6417,2.0,256.9265579,21.3534283,-99999.0,'11111222,11111222,99999999' 
TABS,ioos:station:wmo:42051:1,2015-10-02T08:30:00Z,29.6350,-93.6417,2.0,270.0004209,18.79,-99999.0,'11111222,11111222,99999999' 
TABS,ioos:station:wmo:42051:1,2015-10-02T09:00:00Z,29.6350,-93.6417,2.0,269.0597742,15.24205039,-99999.0,'11111222,11111222,99999999' 
TABS,ioos:station:wmo:42051:1,2015-10-02T09:30:00Z,29.6350,-93.6417,2.0,257.2261098,23.11198174,-99999.0,'11111222,11111222,99999999' 
TABS,ioos:station:wmo:42051:1,2015-10-02T10:00:00Z,29.6350,-93.6417,2.0,264.2714911,19.53755614,-99999.0,'11111222,11111222,99999999' 
TABS,ioos:station:wmo:42051:1,2015-10-02T10:30:00Z,29.6350,-93.6417,2.0,254.5209771,16.86156873,-99999.0,'11111222,11111222,99999999' 
TABS,ioos:station:wmo:42051:1,2015-10-02T11:00:00Z,29.6350,-93.6417,2.0,247.7630605,23.22744282,-99999.0,'11111222,11111222,99999999' 
TABS,ioos:station:wmo:42051:1,2015-10-02T11:30:00Z,29.6350,-93.6417,2.0,257.8194437,16.39916156,-99999.0,'11111222,11111222,99999999' 
TABS,ioos:station:wmo:42051:1,2015-10-02T12:00:00Z,29.6350,-93.6417,2.0,267.8369948,14.31019217,-99999.0,'11111222,11111222,99999999' 
TABS,ioos:station:wmo:42051:1,2015-10-02T12:30:00Z,29.6350,-93.6417,2.0,271.7347019,12.22560019,-99999.0,'11111222,11111222,99999999' 
TABS,ioos:station:wmo:42051:1,2015-10-02T13:00:00Z,29.6350,-93.6417,2.0,258.0370147,8.780689039,-99999.0,'11133222,11111222,99999999' 
TABS,ioos:station:wmo:42051:1,2015-10-02T13:30:00Z,29.6350,-93.6417,2.0,261.4030762,10.77100738,-99999.0,'11111222,11111222,99999999' 
TABS,ioos:station:wmo:42051:1,2015-10-02T14:00:00Z,29.6350,-93.6417,2.0,247.7431677,22.67968695,-99999.0,'11111222,11111222,99999999' 
TABS,ioos:station:wmo:42051:1,2015-10-02T14:30:00Z,29.6350,-93.6417,2.0,246.6220225,16.80993159,-99999.0,'11111222,11111222,99999999' 
TABS,ioos:station:wmo:42051:1,2015-10-02T15:00:00Z,29.6350,-93.6417,2.0,255.1650664,20.19305078,-99999.0,'11111222,11111222,99999999' 
TABS,ioos:station:wmo:42051:1,2015-10-02T15:30:00Z,29.6350,-93.6417,2.0,249.8432835,16.10642418,-99999.0,'11111222,11111222,99999999' 
TABS,ioos:station:wmo:42051:1,2015-10-02T16:00:00Z,29.6350,-93.6417,2.0,246.4445128,14.13803735,-99999.0,'11111222,11111222,99999999' 
TABS,ioos:station:wmo:42051:1,2015-10-02T16:30:00Z,29.6350,-93.6417,2.0,248.4829379,12.70543191,-99999.0,'11111222,11111222,99999999' 
TABS,ioos:station:wmo:42051:1,2015-10-02T17:00:00Z,29.6350,-93.6417,2.0,248.5576115,13.32204564,-99999.0,'11111222,11111222,99999999' 
TABS,ioos:station:wmo:42051:1,2015-10-02T17:30:00Z,29.6350,-93.6417,2.0,263.6594022,9.870369801,-99999.0,'11133222,11111222,99999999' 
TABS,ioos:station:wmo:42051:1,2015-10-02T18:00:00Z,29.6350,-93.6417,2.0,254.6350605,8.265409851,-99999.0,'11133222,11111222,99999999' 
TABS,ioos:station:wmo:42051:1,2015-10-02T18:30:00Z,29.6350,-93.6417,2.0,258.2938819,7.097612275,-99999.0,'11133222,11111222,99999999' 
TABS,ioos:station:wmo:42051:1,2015-10-02T19:00:00Z,29.6350,-93.6417,2.0,256.928195,9.506318951,-99999.0,'11133222,11111222,99999999' 
TABS,ioos:station:wmo:42051:1,2015-10-02T19:30:00Z,29.6350,-93.6417,2.0,267.8951741,11.43771393,-99999.0,'11111222,11111222,99999999' 
TABS,ioos:station:wmo:42051:1,2015-10-02T20:00:00Z,29.6350,-93.6417,2.0,276.1388116,10.66112564,-99999.0,'11111222,11111222,99999999' 
TABS,ioos:station:wmo:42051:1,2015-10-02T20:30:00Z,29.6350,-93.6417,2.0,287.683713,7.473105111,-99999.0,'11133222,11111222,99999999' 
TABS,ioos:station:wmo:42051:1,2015-10-02T21:00:00Z,29.6350,-93.6417,2.0,293.0626142,7.173290737,-99999.0,'11133222,11111222,99999999' 
TABS,ioos:station:wmo:42051:1,2015-10-02T21:30:00Z,29.6350,-93.6417,2.0,299.7330369,5.827151963,-99999.0,'11133222,11111222,99999999' 
TABS,ioos:station:wmo:42051:1,2015-10-02T22:00:00Z,29.6350,-93.6417,2.0,288.8594319,8.9716275,-99999.0,'11133222,11111222,99999999' 
TABS,ioos:station:wmo:42051:1,2015-10-02T22:30:00Z,29.6350,-93.6417,2.0,297.4952847,9.920504019,-99999.0,'11133222,11111222,99999999' 
TABS,ioos:station:wmo:42051:1,2015-10-02T23:00:00Z,29.6350,-93.6417,2.0,302.0910117,8.545712375,-99999.0,'11133222,11111222,99999999' 
TABS,ioos:station:wmo:42051:1,2015-10-02T23:30:00Z,29.6350,-93.6417,2.0,303.2679963,8.276351853,-99999.0,'11133222,11111222,99999999' 
TABS,ioos:station:wmo:42051:1,2015-10-03T00:00:00Z,29.6350,-93.6417,2.0,299.4735668,8.109482104,-99999.0,'11133222,11111222,99999999' 
TABS,ioos:station:wmo:42051:1,2015-10-03T00:30:00Z,29.6350,-93.6417,2.0,262.0461203,10.55149752,-99999.0,'11111222,11111222,99999999' 
TABS,ioos:station:wmo:42051:1,2015-10-03T01:00:00Z,29.6350,-93.6417,2.0,267.7089744,6.004798082,-99999.0,'11133222,11111222,99999999' 
TABS,ioos:station:wmo:42051:1,2015-10-03T01:30:00Z,29.6350,-93.6417,2.0,275.9494288,5.499618169,-99999.0,'11133222,11111222,99999999' 
TABS,ioos:station:wmo:42051:1,2015-10-03T02:00:00Z,29.6350,-93.6417,2.0,280.6450567,4.222665035,-99999.0,'11133222,11111222,99999999' 
TABS,ioos:station:wmo:42051:1,2015-10-03T02:30:00Z,29.6350,-93.6417,2.0,245.3642795,12.88258514,-99999.0,'11111222,11111222,99999999' 
TABS,ioos:station:wmo:42051:1,2015-10-03T03:00:00Z,29.6350,-93.6417,2.0,237.6760555,7.443419913,-99999.0,'11133222,11111222,99999999' 
TABS,ioos:station:wmo:42051:1,2015-10-03T03:30:00Z,29.6350,-93.6417,2.0,232.8700858,4.854049856,-99999.0,'11133222,11111222,99999999' 
TABS,ioos:station:wmo:42051:1,2015-10-03T04:00:00Z,29.6350,-93.6417,2.0,223.2825561,6.607344398,-99999.0,'11133222,11111222,99999999' 
TABS,ioos:station:wmo:42051:1,2015-10-03T04:30:00Z,29.6350,-93.6417,2.0,240.7744035,4.239681592,-99999.0,'11133222,11111222,99999999' 
TABS,ioos:station:wmo:42051:1,2015-10-03T05:00:00Z,29.6350,-93.6417,2.0,244.6680377,5.609358252,-99999.0,'11133222,11111222,99999999' 
TABS,ioos:station:wmo:42051:1,2015-10-03T05:30:00Z,29.6350,-93.6417,2.0,223.9158419,5.233526536,-99999.0,'11133222,11111222,99999999' 
TABS,ioos:station:wmo:42051:1,2015-10-03T06:00:00Z,29.6350,-93.6417,2.0,316.5914522,0.509313263,-99999.0,'11133222,11111222,99999999' 
TABS,ioos:station:wmo:42051:1,2015-10-03T06:30:00Z,29.6350,-93.6417,2.0,287.0121251,5.092838109,-99999.0,'11133222,11111222,99999999' 
TABS,ioos:station:wmo:42051:1,2015-10-03T07:00:00Z,29.6350,-93.6417,2.0,302.3374218,6.22547187,-99999.0,'11133222,11111222,99999999' 
TABS,ioos:station:wmo:42051:1,2015-10-03T07:30:00Z,29.6350,-93.6417,2.0,287.4372456,4.538557039,-99999.0,'11133222,11111222,99999999' 
TABS,ioos:station:wmo:42051:1,2015-10-03T08:00:00Z,29.6350,-93.6417,2.0,314.4330506,3.571064267,-99999.0,'11133222,11111222,99999999' 
TABS,ioos:station:wmo:42051:1,2015-10-03T08:30:00Z,29.6350,-93.6417,2.0,288.119097,6.302515371,-99999.0,'11133222,11111222,99999999' 
TABS,ioos:station:wmo:42051:1,2015-10-03T09:00:00Z,29.6350,-93.6417,2.0,272.9600097,7.359816574,-99999.0,'11133222,11111222,99999999' 
TABS,ioos:station:wmo:42051:1,2015-10-03T09:30:00Z,29.6350,-93.6417,2.0,291.4439748,9.218096333,-99999.0,'11133222,11111222,99999999' 
TABS,ioos:station:wmo:42051:1,2015-10-03T10:00:00Z,29.6350,-93.6417,2.0,274.9181447,10.49864753,-99999.0,'11111222,11111222,99999999' 
TABS,ioos:station:wmo:42051:1,2015-10-03T10:30:00Z,29.6350,-93.6417,2.0,281.8247246,9.174682556,-99999.0,'11133222,11111222,99999999' 
TABS,ioos:station:wmo:42051:1,2015-10-03T11:00:00Z,29.6350,-93.6417,2.0,271.4171212,9.302843651,-99999.0,'11133222,11111222,99999999' 
TABS,ioos:station:wmo:42051:1,2015-10-03T11:30:00Z,29.6350,-93.6417,2.0,251.1348447,11.38135756,-99999.0,'11111222,11111222,99999999' 
TABS,ioos:station:wmo:42051:1,2015-10-03T12:00:00Z,29.6350,-93.6417,2.0,262.0462019,13.29791337,-99999.0,'11111222,11111222,99999999' 
TABS,ioos:station:wmo:42051:1,2015-10-03T12:30:00Z,29.6350,-93.6417,2.0,258.106812,14.26622585,-99999.0,'11111222,11111222,99999999' 
TABS,ioos:station:wmo:42051:1,2015-10-03T13:00:00Z,29.6350,-93.6417,2.0,257.2429757,11.72952258,-99999.0,'11111222,11111222,99999999' 
TABS,ioos:station:wmo:42051:1,2015-10-03T13:30:00Z,29.6350,-93.6417,2.0,252.4349616,11.03445966,-99999.0,'11111222,11111222,99999999' 
TABS,ioos:station:wmo:42051:1,2015-10-03T14:00:00Z,29.6350,-93.6417,2.0,263.4643667,8.43480883,-99999.0,'11133222,11111222,99999999' 
TABS,ioos:station:wmo:42051:1,2015-10-03T14:30:00Z,29.6350,-93.6417,2.0,240.5998022,7.414930883,-99999.0,'11133222,11111222,99999999' 
TABS,ioos:station:wmo:42051:1,2015-10-03T15:00:00Z,29.6350,-93.6417,2.0,238.8146773,6.218585048,-99999.0,'11133222,11111222,99999999' 
TABS,ioos:station:wmo:42051:1,2015-10-03T15:30:00Z,29.6350,-93.6417,2.0,246.2125796,10.61143251,-99999.0,'11111222,11111222,99999999' 
TABS,ioos:station:wmo:42051:1,2015-10-03T16:00:00Z,29.6350,-93.6417,2.0,241.6759327,8.451845952,-99999.0,'11133222,11111222,99999999' 
TABS,ioos:station:wmo:42051:1,2015-10-03T16:30:00Z,29.6350,-93.6417,2.0,237.5112757,7.670417199,-99999.0,'11133222,11111222,99999999' 
TABS,ioos:station:wmo:42051:1,2015-10-03T17:00:00Z,29.6350,-93.6417,2.0,234.1362556,10.0195459,-99999.0,'11111222,11111222,99999999' 
TABS,ioos:station:wmo:42051:1,2015-10-03T17:30:00Z,29.6350,-93.6417,2.0,222.1994117,10.42105561,-99999.0,'11111222,11111222,99999999' 
TABS,ioos:station:wmo:42051:1,2015-10-03T18:00:00Z,29.6350,-93.6417,2.0,218.469267,10.81821612,-99999.0,'11111222,11111222,99999999' 
TABS,ioos:station:wmo:42051:1,2015-10-03T18:30:00Z,29.6350,-93.6417,2.0,218.1478778,10.66865502,-99999.0,'11111222,11111222,99999999' 
TABS,ioos:station:wmo:42051:1,2015-10-03T19:00:00Z,29.6350,-93.6417,2.0,214.8053096,10.82702637,-99999.0,'11111222,11111222,99999999' 
TABS,ioos:station:wmo:42051:1,2015-10-03T19:30:00Z,29.6350,-93.6417,2.0,208.5216645,9.298521388,-99999.0,'11133222,11111222,99999999' 
TABS,ioos:station:wmo:42051:1,2015-10-03T20:00:00Z,29.6350,-93.6417,2.0,209.2784609,8.690161103,-99999.0,'11133222,11111222,99999999' 
TABS,ioos:station:wmo:42051:1,2015-10-03T20:30:00Z,29.6350,-93.6417,2.0,222.9309692,7.443614713,-99999.0,'11133222,11111222,99999999' 
TABS,ioos:station:wmo:42051:1,2015-10-03T21:00:00Z,29.6350,-93.6417,2.0,211.3405051,7.036739302,-99999.0,'11133222,11111222,99999999' 
TABS,ioos:station:wmo:42051:1,2015-10-03T21:30:00Z,29.6350,-93.6417,2.0,211.3819603,5.165675174,-99999.0,'11133222,11111222,99999999' 
TABS,ioos:station:wmo:42051:1,2015-10-03T22:00:00Z,29.6350,-93.6417,2.0,212.8584322,6.690388628,-99999.0,'11133222,11111222,99999999' 
TABS,ioos:station:wmo:42051:1,2015-10-03T22:30:00Z,29.6350,-93.6417,2.0,241.0442627,7.291453902,-99999.0,'11133222,11111222,99999999' 
TABS,ioos:station:wmo:42051:1,2015-10-03T23:00:00Z,29.6350,-93.6417,2.0,237.659827,6.355855568,-99999.0,'11133222,11111222,99999999' 
TABS,ioos:station:wmo:42051:1,2015-10-03T23:30:00Z,29.6350,-93.6417,2.0,265.8914765,7.258650012,-99999.0,'11133222,11111222,99999999' 
TABS,ioos:station:wmo:42051:1,2015-10-04T00:00:00Z,29.6350,-93.6417,2.0,261.5362833,4.620313842,-99999.0,'11133222,11111222,99999999' 
TABS,ioos:station:wmo:42051:1,2015-10-04T00:30:00Z,29.6350,-93.6417,2.0,275.6322005,7.234922253,-99999.0,'11133222,11111222,99999999' 
TABS,ioos:station:wmo:42051:1,2015-10-04T01:00:00Z,29.6350,-93.6417,2.0,276.8314109,7.734907886,-99999.0,'11133222,11111222,99999999' 
TABS,ioos:station:wmo:42051:1,2015-10-04T01:30:00Z,29.6350,-93.6417,2.0,268.6076224,5.351579206,-99999.0,'11133222,11111222,99999999' 
TABS,ioos:station:wmo:42051:1,2015-10-04T02:00:00Z,29.6350,-93.6417,2.0,256.5540243,3.999624982,-99999.0,'11133222,11111222,99999999' 
TABS,ioos:station:wmo:42051:1,2015-10-04T02:30:00Z,29.6350,-93.6417,2.0,230.700329,4.057647101,-99999.0,'11133222,11111222,99999999' 
TABS,ioos:station:wmo:42051:1,2015-10-04T03:00:00Z,29.6350,-93.6417,2.0,277.4777337,4.841167215,-99999.0,'11133222,11111222,99999999' 
TABS,ioos:station:wmo:42051:1,2015-10-04T03:30:00Z,29.6350,-93.6417,2.0,240.7789124,5.694672949,-99999.0,'11133222,11111222,99999999' 
TABS,ioos:station:wmo:42051:1,2015-10-04T04:00:00Z,29.6350,-93.6417,2.0,241.5932794,9.186038319,-99999.0,'11133222,11111222,99999999' 
TABS,ioos:station:wmo:42051:1,2015-10-04T04:30:00Z,29.6350,-93.6417,2.0,251.7247167,9.056798551,-99999.0,'11133222,11111222,99999999' 
TABS,ioos:station:wmo:42051:1,2015-10-04T05:00:00Z,29.6350,-93.6417,2.0,253.9396293,9.615258707,-99999.0,'11133222,11111222,99999999' 
TABS,ioos:station:wmo:42051:1,2015-10-04T05:30:00Z,29.6350,-93.6417,2.0,259.2110185,6.250479982,-99999.0,'11133222,11111222,99999999' 
TABS,ioos:station:wmo:42051:1,2015-10-04T06:00:00Z,29.6350,-93.6417,2.0,258.8929755,9.395983184,-99999.0,'11133222,11111222,99999999' 
TABS,ioos:station:wmo:42051:1,2015-10-04T06:30:00Z,29.6350,-93.6417,2.0,253.7713038,8.623601336,-99999.0,'11133222,11111222,99999999' 
TABS,ioos:station:wmo:42051:1,2015-10-04T07:00:00Z,29.6350,-93.6417,2.0,273.8084602,6.323962365,-99999.0,'11133222,11111222,99999999' 
TABS,ioos:station:wmo:42051:1,2015-10-04T07:30:00Z,29.6350,-93.6417,2.0,279.3470243,7.327277803,-99999.0,'11133222,11111222,99999999' 
TABS,ioos:station:wmo:42051:1,2015-10-04T08:00:00Z,29.6350,-93.6417,2.0,282.6228578,5.308295395,-99999.0,'11133222,11111222,99999999' 
TABS,ioos:station:wmo:42051:1,2015-10-04T08:30:00Z,29.6350,-93.6417,2.0,289.5370302,5.920878313,-99999.0,'11133222,11111222,99999999' 
TABS,ioos:station:wmo:42051:1,2015-10-04T09:00:00Z,29.6350,-93.6417,2.0,284.6662287,3.752252657,-99999.0,'11133222,11111222,99999999' 
TABS,ioos:station:wmo:42051:1,2015-10-04T09:30:00Z,29.6350,-93.6417,2.0,273.1504265,7.46127335,-99999.0,'11133222,11111222,99999999' 
TABS,ioos:station:wmo:42051:1,2015-10-04T10:00:00Z,29.6350,-93.6417,2.0,277.7099788,10.2123112,-99999.0,'11111222,11111222,99999999' 
TABS,ioos:station:wmo:42051:1,2015-10-04T10:30:00Z,29.6350,-93.6417,2.0,268.8470411,8.451709886,-99999.0,'11133222,11111222,99999999' 
TABS,ioos:station:wmo:42051:1,2015-10-04T11:00:00Z,29.6350,-93.6417,2.0,282.469563,8.33664201,-99999.0,'11133222,11111222,99999999' 
TABS,ioos:station:wmo:42051:1,2015-10-04T11:30:00Z,29.6350,-93.6417,2.0,271.0343065,9.421533845,-99999.0,'11133222,11111222,99999999' 
TABS,ioos:station:wmo:42051:1,2015-10-04T12:00:00Z,29.6350,-93.6417,2.0,258.7634759,9.135097153,-99999.0,'11133222,11111222,99999999' 
TABS,ioos:station:wmo:42051:1,2015-10-04T12:30:00Z,29.6350,-93.6417,2.0,263.5927948,9.499326292,-99999.0,'11133222,11111222,99999999' 
TABS,ioos:station:wmo:42051:1,2015-10-04T13:00:00Z,29.6350,-93.6417,2.0,258.6173605,9.32336849,-99999.0,'11133222,11111222,99999999' 
TABS,ioos:station:wmo:42051:1,2015-10-04T13:30:00Z,29.6350,-93.6417,2.0,247.9906681,9.739784392,-99999.0,'11133222,11111222,99999999' 
TABS,ioos:station:wmo:42051:1,2015-10-04T14:00:00Z,29.6350,-93.6417,2.0,261.1836861,8.743294574,-99999.0,'11133222,11111222,99999999' 
TABS,ioos:station:wmo:42051:1,2015-10-04T14:30:00Z,29.6350,-93.6417,2.0,266.5084158,7.554018798,-99999.0,'11133222,11111222,99999999' 
TABS,ioos:station:wmo:42051:1,2015-10-04T15:00:00Z,29.6350,-93.6417,2.0,252.2494493,7.937883849,-99999.0,'11133222,11111222,99999999' 
TABS,ioos:station:wmo:42051:1,2015-10-04T15:30:00Z,29.6350,-93.6417,2.0,245.1844219,10.98421595,-99999.0,'11111222,11111222,99999999' 
TABS,ioos:station:wmo:42051:1,2015-10-04T16:00:00Z,29.6350,-93.6417,2.0,233.101571,8.128000984,-99999.0,'11133222,11111222,99999999' 